{"data":{"norad_id":54860,"epoch":"2026-09-20T21:41:24.973728Z","epoch_age_seconds":58120,"freshness":"FRESH","line1":"1 54860U 22177AS  26263.90376127  .00000086  00000+0  12659-4 0  9996","line2":"2 54860  43.0018  99.3170 0001174 262.8540  97.2178 15.27575996206941","mean_motion":15.27575996,"eccentricity":0.0001174,"inclination_deg":43.0018,"raan_deg":99.317,"arg_perigee_deg":262.854,"mean_anomaly_deg":97.2178,"bstar":1.2659e-5,"rev_number":20694,"period_min":94.266995800581,"perigee_km":482.25558082704,"apogee_km":483.86659013751,"semimajor_km":6861.1980854823,"source":"CELESTRAK","updated_at":"2026-09-21T09:00:33.159816Z"}}